User: anonymous   Login
Location: Newark
(11.5710°N, 104.9241°E)
Time: 15:52:08
(UTC+00:00)
Language:

DOVE 4 - Orbit

View from above orbital plane
View from above orbital plane
View from above satellite
View from above satellite

Ground track
Ground track

The orbit data is extracted from the following two-line orbital elements,

1 39430U 13066Q   20095.41467225  .00000251  00000-0  53895-4 0  9994
2 39430  97.7838  38.4427 0152455  58.0358 303.5557 14.59368828339009
Epoch (UTC): 04 April 2020 09:57:07
Eccentricity: 0.0152455
inclination: 97.7838°
perigee height: 587 km
apogee height: 803 km
right ascension of ascending node: 38.4427°
argument of perigee: 58.0358°
revolutions per day: 14.59368828
mean anomaly at epoch: 303.5557°
orbit number at epoch: 33900

The dashed part of the orbit path shows where the satellite is in the earth's shadow,  

DLR